Details for FedEx at KMIA




Go Back


Latest METAR
Local Time

KMIA 221053Z 00000KT 10SM FEW025 FEW180 SCT250 26/24 A2999 RMK AO2 SLP154 TCU DSNT E T02560244 $
22/09/2018, 07:45:04

Description
Results
FedEx Logo
Number of Pilots based at KMIA
0 Pilots Based here
Number of FedEx Flights Departed from KMIA
0 Flights Departed
Number of FedEx Flights Arrived at KMIA
0 Flights Arrived
Number of FedEx Schedules Departing from KMIA
23 Schedules
Number of FedEx Schedules Arriving at KMIA
23 Schedules
Number of FedEx Schedules Departing from KMIA availible today
2 Schedules Today
Number of FedEx Schedules Arriving at KMIA availible today
4 Schedules Today
Average Landing Rate at KMIA
-187 fpm
FedEx Average Landing Rate at KMIA
0 fpm
Total Fuel Purchased at KMIA by FedEx
0.00 kgs / 0.00 lbs

Pilots Based at KMIA


Pilot ID
Pilot Name
Pilot Rank
No. of Flights
No. of Flying Hours
There are no pilots assigned to this hub!   Will you be the first?
Content